Location: Taukkyan
(23.1052°N, 94.0030°E)
Time: 11:51:08
(UTC+00:00)

CZ-2C R/B - Pass Details

Date: 06 July 2020
Orbit: 502 x 567 km, 97.7° (Epoch: 14 August)

Event Time Altitude Azimuth Distance (km) Brightness Sun altitude
Rises 20:58:34 0° 10° (N) 2,761 7.2 -25.1°
Reaches altitude 10° 21:00:43 10° 9° (N) 1,863 6.1 -24.7°
Enters shadow 21:04:20 69° 350° (N) 606 3.0 -24.1°
